EA3KZ-1 Weather Reports


time (UTC)temp
F
wind
direction
speed
knots
gust
knots
rain 1hr
in
rain 24hr
in
rain mn
in
humidity
%
barometer
mb
20260504050112 57 215 1.7 3.5 0.00 0.00 0.00 90 1008.5
20260504045109 57 216 0.9 3.5 0.00 0.00 0.00 90 1008.5
20260504044106 57 211 1.7 3.5 0.00 0.00 0.00 90 1008.6
20260504043104 57 175 1.7 3.5 0.00 0.00 0.00 89 1008.5
20260504042101 58 234 0.9 1.7 0.00 0.00 0.00 89 1008.4
20260504041058 58 158 0.0 1.7 0.00 0.00 0.00 89 1008.5
20260504040056 58 218 0.0 1.7 0.00 0.00 0.00 89 1008.6
20260504035053 57 0.0 0.0 0.00 0.00 0.00 89 1008.5
20260504034050 57 0.0 0.0 0.00 0.00 0.00 88 1008.7
20260504033048 58 240 0.0 1.7 0.00 0.00 0.00 88 1008.6
20260504032045 58 162 0.9 1.7 0.00 0.00 0.00 88 1008.6
20260504031043 58 0.0 0.0 0.00 0.00 0.00 88 1008.7
20260504030040 58 0.0 0.0 0.00 0.00 0.00 88 1009.0
20260504025037 58 0.0 0.0 0.00 0.00 0.00 88 1008.8
20260504024034 58 0.0 1.7 0.00 0.00 0.00 88 1008.8
20260504023032 58 0.0 0.0 0.00 0.00 0.00 88 1008.7
20260504022029 58 171 0.9 1.7 0.00 0.00 0.00 88 1008.7
20260504021027 58 155 1.7 3.5 0.00 0.00 0.00 88 1008.9
20260504020024 58 132 0.9 1.7 0.00 0.00 0.00 89 1009.1
20260504015021 58 0 0.0 1.7 0.00 0.00 0.00 89 1009.0
20260504014019 58 0.0 0.0 0.00 0.00 0.00 89 1009.0
20260504013016 57 0.0 0.0 0.00 0.00 0.00 90 1009.0
20260504012114 58 210 0.9 1.7 0.00 0.00 0.00 90 1009.2
20260504011111 57 270 0.0 1.7 0.00 0.00 0.00 90 1009.2
20260504010109 57 0.0 1.7 0.00 0.00 0.00 91 1009.5
20260504005107 57 303 0.0 1.7 0.00 0.00 0.00 91 1009.4
20260504004104 57 293 0.0 1.7 0.00 0.00 0.00 91 1009.6
20260504003101 57 281 0.9 3.5 0.00 0.00 0.00 92 1009.6
20260504002058 57 300 1.7 3.5 0.00 0.00 0.00 92 1009.8
20260504001056 57 280 2.6 3.5 0.00 0.00 0.00 92 1009.8
20260504000053 57 299 1.7 3.5 0.00 0.00 0.00 91 1009.8
20260503235050 57 309 2.6 5.2 0.00 0.00 0.00 91 1009.8
20260503234048 57 312 1.7 3.5 0.00 0.00 0.00 92 1010.0
20260503233045 57 312 0.9 3.5 0.00 0.00 0.00 92 1009.9
20260503232043 56 12 1.7 3.5 0.00 0.00 0.00 92 1010.3
20260503231040 56 11 1.7 3.5 0.00 0.00 0.00 92 1010.1
20260503230038 56 323 0.9 1.7 0.00 0.00 0.00 92 1010.2
20260503225036 56 351 1.7 3.5 0.00 0.00 0.00 92 1010.0
20260503224033 56 339 1.7 3.5 0.00 0.00 0.00 93 1010.1
20260503223031 56 11 1.7 3.5 0.00 0.00 0.00 93 1010.1
20260503222028 56 342 1.7 3.5 0.00 0.00 0.00 94 1010.1
20260503221026 56 307 3.5 6.1 0.00 0.00 0.00 94 1010.1
20260503220023 56 305 4.3 7.0 0.00 0.00 0.00 94 1010.1
20260503215020 56 320 3.5 7.0 0.00 0.00 0.00 93 1010.3
20260503214018 56 352 3.5 7.8 0.00 0.00 0.00 92 1010.2
20260503213015 57 329 2.6 6.1 0.00 0.00 0.00 91 1010.4
20260503212113 57 331 4.3 9.6 0.00 0.00 0.00 90 1010.3
20260503211110 58 26 2.6 7.0 0.00 0.00 0.00 89 1010.6
20260503210108 58 324 1.7 3.5 0.00 0.00 0.00 88 1010.5
20260503205104 58 2 2.6 5.2 0.00 0.00 0.00 87 1010.4
20260503204102 58 330 2.6 3.5 0.00 0.00 0.00 87 1010.5
20260503203059 58 328 2.6 7.0 0.00 0.00 0.00 88 1010.6
20260503202057 58 313 2.6 5.2 0.00 0.00 0.00 89 1010.6
20260503201054 58 351 0.9 3.5 0.00 0.00 0.00 89 1010.6
20260503200052 58 335 0.9 3.5 0.00 0.00 0.00 89 1010.4
20260503195049 58 300 2.6 3.5 0.00 0.00 0.00 89 1010.4
20260503194047 58 346 2.6 3.5 0.00 0.00 0.00 89 1010.3
20260503193044 58 345 2.6 5.2 0.00 0.00 0.00 89 1010.3
20260503192041 58 14 3.5 7.8 0.00 0.00 0.00 88 1010.2
20260503191041 58 332 3.5 6.1 0.00 0.00 0.00 88 1010.1
20260503190036 58 0 4.3 7.8 0.00 0.00 0.00 87 1010.0
20260503185034 58 18 4.3 7.8 0.00 0.00 0.00 86 1010.1
20260503184031 58 23 2.6 5.2 0.00 0.00 0.00 85 1010.2
20260503183028 58 338 3.5 6.1 0.00 0.00 0.00 83 1010.1
20260503182026 58 333 3.5 7.0 0.00 0.00 0.00 81 1010.1
20260503181023 59 338 1.7 6.1 0.00 0.00 0.00 80 1010.1
20260503180021 59 341 2.6 5.2 0.00 0.00 0.00 80 1010.0
20260503175018 59 25 2.6 5.2 0.00 0.00 0.00 80 1010.1
20260503174015 59 351 3.5 7.0 0.00 0.00 0.00 78 1009.8
20260503173112 59 359 5.2 9.6 0.00 0.00 0.00 75 1009.8
20260503172110 59 355 3.5 7.8 0.00 0.00 0.00 74 1009.8
20260503171107 59 15 4.3 9.6 0.00 0.00 0.00 74 1009.8
20260503170105 59 23 6.1 11.3 0.00 0.00 0.00 76 1009.8
20260503131105 63 278 1.7 6.1 0.00 0.00 0.00 72 1011.5
20260503081046 60 3 3.5 7.0 0.00 0.00 0.00 81 1012.2